Flag for Canada Weather past 2 weeks in Calgary, Alberta, Canada

Now
36 °F

Broken clouds.


Feels Like: 32 °F
Forecast: 16 / 34 °F
Wind: 5 mph from South

Location: Calgary International

Current Time: Dec 18, 2014 at 5:10:55 PM

Latest Report: Dec 18, 2014 at 4:00 PM


Visibility: 30 mi

Pressure: 29.90 "Hg

Humidity: 60%

Dew point: 23 °F

Location of CalgaryLocation

Historic Weather in Calgary — Graph

°F

Calgary temperature yesterday

Maximum temperature yesterday: 36 °F (at 2:00 PM)
Minimum temperature yesterday: 14 °F (at 5:00 AM)
Average temperature yesterday: 25 °F

Past Weeks' High & Low Weather Summary

 TemperatureHumidityPressure
High52 °F (Dec 11, 3:00 AM)93% (Dec 5, 6:00 PM)30.42 "Hg (Dec 5, 6:00 PM)
Low10 °F (Dec 5, 1:00 AM)29% (Dec 11, 8:00 AM)29.36 "Hg (Dec 11, 3:00 AM)
Average30 °F72%29.99 "Hg
* Reported Dec 3 4:00 PM — Dec 18 4:00 PM, Calgary, Weather by CustomWeather, © 2014

Note: Actual official high and low records may vary slightly from our data, if they occured in-between our weather recording intervals... More about our weather records

Advertising

Calgary weather history for previous 24 hours

 ConditionsComfort  
Time TempWeatherWind HumidityBarometerVisibility
4:00 PM
Dec 18
36 °FBroken clouds.5 mph60%29.90 "Hg30 mi
3:00 PM37 °FPartly sunny.5 mph56%29.89 "Hg30 mi
2:00 PM36 °FBroken clouds.7 mph56%29.90 "Hg40 mi
1:00 PM37 °FBroken clouds.5 mph52%29.91 "Hg40 mi
12:00 PM36 °FPartly sunny.6 mph56%29.91 "Hg40 mi
11:00 AM32 °FOvercast.3 mph64%29.93 "Hg40 mi
10:00 AM27 °FBroken clouds.No wind74%29.93 "Hg40 mi
9:00 AM25 °FPartly sunny.2 mph74%29.96 "Hg40 mi
8:00 AM25 °FPassing clouds.2 mph74%29.96 "Hg15 mi
7:00 AM19 °FPassing clouds.3 mph86%29.97 "Hg15 mi
6:00 AM21 °FPassing clouds.3 mph74%29.96 "Hg15 mi
5:00 AM21 °FPassing clouds.2 mph74%29.95 "Hg15 mi
4:00 AM28 °FPassing clouds.5 mph59%29.94 "Hg15 mi
3:00 AM27 °FClear.10 mph64%29.93 "Hg15 mi
2:00 AM25 °FPassing clouds.5 mph69%29.93 "Hg15 mi
1:00 AM25 °FPassing clouds.2 mph69%29.93 "Hg15 mi
12:00 AM32 °FPassing clouds.No wind51%29.93 "Hg15 mi
11:00 PM
Dec 17
36 °FPassing clouds.10 mph48%29.94 "Hg15 mi
10:00 PM36 °FPassing clouds.15 mph48%29.94 "Hg15 mi
9:00 PM28 °FPassing clouds.6 mph69%29.97 "Hg15 mi
8:00 PM28 °FPassing clouds.5 mph69%29.97 "Hg15 mi
7:00 PM28 °FPassing clouds.2 mph69%29.97 "Hg15 mi
6:00 PM30 °FPassing clouds.6 mph64%29.96 "Hg15 mi
5:00 PM30 °FPassing clouds.5 mph69%29.95 "Hg15 mi
Weather by CustomWeather, © 2014

See weather overviewHow to use our weather pages